Gunnison, CO

12:32 AM MDT on April 30, 2017 (GMT -0600)
Gunnison County

Weather History for KGUC - October, 2013

Change the Weather History Date:

Friday, October 4, 2013

  Actual Average Record
Temperature  
Mean Temperature 34 °F -  
Max Temperature 41 °F 61 °F 71 °F (1997)
Min Temperature 26 °F 27 °F 17 °F (1999)
Degree Days  
Heating Degree Days 30    
Moisture  
Dew Point 20 °F    
Average Humidity 57    
Maximum Humidity 75    
Minimum Humidity 36    
Precipitation  
Precipitation 0.00 in - - ()
Sea Level Pressure  
Sea Level Pressure 30.15 in    
Wind  
Wind Speed 13 mph (SW)    
Max Wind Speed 20 mph    
Max Gust Speed 31 mph    
Visibility 10 miles    
Events      
Averages and records for this station are not official NWS values.
T = Trace of Precipitation, MM = Missing Value Source: NWS Daily Summary

Daily Weather History Graph

Daily Weather History Graph

Search for Another Location

Airport or City:

Trip Planner

Search our weather history database for the weather conditions in past years. The results will help you decide how hot, cold, wet, or windy it might be!

Date:

Astronomy

Oct. 04, 2013 Rise Set
Actual Time 7:06 AM MDT 6:45 PM MDT
Civil Twilight 6:40 AM MDT 7:11 PM MDT
Nautical Twilight 6:09 AM MDT 7:42 PM MDT
Astronomical Twilight 5:38 AM MDT 8:13 PM MDT
Moon 6:45 AM MDT (10/4) 6:30 PM MDT (10/4)
Length of Visible Light 12h 31m
Length of Day
11h 38m
Waning Crescent, 0% of the Moon is Illuminated
Oct 4
Waning Crescent
Oct 4
New
Oct 11
First Quarter
Oct 18
Full
Oct 26
Last Quarter

Hourly Weather History & Observations

Time (MDT) Temp. Windchill Dew Point Humidity Pressure Visibility Wind Dir Wind Speed Gust Speed Precip Events Conditions
12:15 AM 35.6 °F 25.5 °F 26.6 °F 70% 29.92 in 10.0 mi SW 17.3 mph 27.6 mph N/A   Mostly Cloudy
12:35 AM 35.6 °F 25.5 °F 26.6 °F 70% 29.94 in 10.0 mi SW 17.3 mph 27.6 mph N/A   Mostly Cloudy
12:55 AM 33.8 °F 23.5 °F 26.6 °F 75% 29.95 in 5.0 mi SW 16.1 mph 27.6 mph N/A   Mostly Cloudy
1:15 AM 33.8 °F 24.8 °F 26.6 °F 75% 29.96 in 3.0 mi SSW 12.7 mph 23.0 mph N/A   Overcast
1:35 AM 33.8 °F 24.3 °F 24.8 °F 70% 29.97 in 10.0 mi SW 13.8 mph 25.3 mph N/A   Overcast
1:55 AM 33.8 °F 22.8 °F 24.8 °F 70% 29.98 in 10.0 mi SW 18.4 mph 25.3 mph N/A   Overcast
2:15 AM 33.8 °F 24.3 °F 24.8 °F 70% 29.99 in 10.0 mi SW 13.8 mph 28.8 mph N/A   Overcast
2:35 AM 33.8 °F 22.8 °F 24.8 °F 70% 30.01 in 10.0 mi SW 18.4 mph 26.5 mph N/A   Overcast
2:55 AM 33.8 °F 24.3 °F 24.8 °F 70% 30.01 in 10.0 mi SW 13.8 mph 18.4 mph N/A   Overcast
3:15 AM 33.8 °F 24.8 °F 24.8 °F 70% 30.03 in 10.0 mi SW 12.7 mph 18.4 mph N/A   Mostly Cloudy
3:35 AM 33.8 °F 26.4 °F 23.0 °F 65% 30.02 in 10.0 mi SSW 9.2 mph - N/A   Mostly Cloudy
3:55 AM 33.8 °F 27.0 °F 24.8 °F 70% 30.01 in 10.0 mi SSW 8.1 mph - N/A   Mostly Cloudy
4:15 AM 33.8 °F 27.0 °F 24.8 °F 70% 30.02 in 10.0 mi SSW 8.1 mph - N/A   Scattered Clouds
4:35 AM 32.0 °F 24.8 °F 23.0 °F 69% 30.02 in 10.0 mi SW 8.1 mph - N/A   Clear
4:55 AM 32.0 °F 24.2 °F 24.8 °F 75% 30.03 in 10.0 mi SSW 9.2 mph - N/A   Clear
5:15 AM 32.0 °F 24.2 °F 24.8 °F 75% 30.03 in 10.0 mi SW 9.2 mph - N/A   Scattered Clouds
5:35 AM 33.8 °F 26.4 °F 23.0 °F 65% 30.04 in 10.0 mi SW 9.2 mph - N/A   Mostly Cloudy
5:55 AM 32.0 °F 24.8 °F 21.2 °F 64% 30.04 in 10.0 mi SW 8.1 mph - N/A   Partly Cloudy
6:15 AM 32.0 °F 26.4 °F 19.4 °F 60% 30.05 in 10.0 mi SW 5.8 mph - N/A   Clear
6:35 AM 30.2 °F 25.4 °F 19.4 °F 64% 30.06 in 10.0 mi SSW 4.6 mph - N/A   Clear
6:55 AM 30.2 °F - 17.6 °F 60% 30.07 in 10.0 mi Calm Calm - N/A   Scattered Clouds
7:15 AM 30.2 °F 23.4 °F 15.8 °F 55% 30.08 in 10.0 mi SW 6.9 mph - N/A   Partly Cloudy
7:35 AM 30.2 °F 20.8 °F 15.8 °F 55% 30.09 in 10.0 mi SSW 11.5 mph - N/A   Clear
7:55 AM 30.2 °F 19.8 °F 15.8 °F 55% 30.10 in 10.0 mi SSW 13.8 mph 18.4 mph N/A   Clear
8:15 AM 32.0 °F 22.1 °F 15.8 °F 51% 30.10 in 10.0 mi SSW 13.8 mph - N/A   Clear
8:35 AM 30.2 °F 19.8 °F 17.6 °F 60% 30.11 in 10.0 mi SW 13.8 mph 19.6 mph N/A   Clear
9:15 AM 33.8 °F 23.2 °F 15.8 °F 48% 30.11 in 10.0 mi SW 17.3 mph 24.2 mph N/A   Clear
9:35 AM 33.8 °F 24.3 °F 19.4 °F 56% 30.12 in 10.0 mi SW 13.8 mph 23.0 mph N/A   Clear
9:55 AM 33.8 °F 22.8 °F 17.6 °F 52% 30.13 in 10.0 mi SSW 18.4 mph 25.3 mph N/A   Clear
10:15 AM 33.8 °F 23.9 °F 19.4 °F 56% 30.13 in 10.0 mi SW 15.0 mph 24.2 mph N/A   Clear
10:35 AM 35.6 °F 26.6 °F 17.6 °F 48% 30.14 in 10.0 mi SW 13.8 mph 23.0 mph N/A   Clear
10:55 AM 35.6 °F 25.9 °F 17.6 °F 48% 30.14 in 10.0 mi SW 16.1 mph 24.2 mph N/A   Scattered Clouds
11:15 AM 35.6 °F 26.2 °F 17.6 °F 48% 30.14 in 10.0 mi SSW 15.0 mph 26.5 mph N/A   Mostly Cloudy
11:35 AM 35.6 °F 25.5 °F 17.6 °F 48% 30.15 in 10.0 mi SSW 17.3 mph 27.6 mph N/A   Overcast
11:55 AM 35.6 °F 26.2 °F 19.4 °F 52% 30.15 in 10.0 mi SW 15.0 mph 23.0 mph N/A   Mostly Cloudy
12:15 PM 37.4 °F 28.9 °F 19.4 °F 48% 30.15 in 10.0 mi SW 13.8 mph 26.5 mph N/A   Partly Cloudy
12:35 PM 39.2 °F 29.8 °F 17.6 °F 42% 30.15 in 10.0 mi WSW 18.4 mph 29.9 mph N/A   Clear
12:55 PM 39.2 °F 30.2 °F 19.4 °F 45% 30.15 in 10.0 mi SW 17.3 mph 27.6 mph N/A   Mostly Cloudy
1:15 PM 39.2 °F 29.6 °F 17.6 °F 42% 30.15 in 10.0 mi WSW 19.6 mph 31.1 mph N/A   Mostly Cloudy
1:35 PM 39.2 °F 30.2 °F 17.6 °F 42% 30.15 in 10.0 mi SW 17.3 mph 31.1 mph N/A   Overcast
1:55 PM 39.2 °F 29.6 °F 17.6 °F 42% 30.15 in 10.0 mi SW 19.6 mph 26.5 mph N/A   Scattered Clouds
2:15 PM 39.2 °F 29.8 °F 17.6 °F 42% 30.16 in 10.0 mi SW 18.4 mph 31.1 mph N/A   Partly Cloudy
2:35 PM 41.0 °F 31.9 °F 17.6 °F 39% 30.16 in 10.0 mi WSW 19.6 mph 28.8 mph N/A   Partly Cloudy
2:55 PM 41.0 °F 32.8 °F 15.8 °F 36% 30.17 in 10.0 mi SW 16.1 mph 27.6 mph N/A   Partly Cloudy
3:15 PM 39.2 °F 30.8 °F 15.8 °F 39% 30.18 in 10.0 mi SW 15.0 mph 26.5 mph N/A   Scattered Clouds
3:35 PM 39.2 °F 30.2 °F 15.8 °F 39% 30.18 in 10.0 mi SW 17.3 mph 25.3 mph N/A   Partly Cloudy
3:55 PM 41.0 °F 33.1 °F 15.8 °F 36% 30.19 in 10.0 mi SW 15.0 mph 25.3 mph N/A   Scattered Clouds
4:15 PM 39.2 °F 29.6 °F 15.8 °F 39% 30.20 in 10.0 mi West 19.6 mph 28.8 mph N/A   Partly Cloudy
4:35 PM 39.2 °F 29.6 °F 15.8 °F 39% 30.21 in 10.0 mi WSW 19.6 mph 24.2 mph N/A   Mostly Cloudy
4:55 PM 39.2 °F 30.2 °F 15.8 °F 39% 30.21 in 10.0 mi WSW 17.3 mph 23.0 mph N/A   Scattered Clouds
5:15 PM 37.4 °F 27.5 °F 15.8 °F 41% 30.22 in 10.0 mi WSW 18.4 mph 23.0 mph N/A   Scattered Clouds
5:35 PM 37.4 °F 28.9 °F 19.4 °F 48% 30.24 in 10.0 mi NW 13.8 mph 17.3 mph N/A   Mostly Cloudy
5:55 PM 35.6 °F 28.0 °F 19.4 °F 52% 30.24 in 10.0 mi WSW 10.4 mph 16.1 mph N/A   Mostly Cloudy
6:15 PM 35.6 °F 27.5 °F 15.8 °F 44% 30.25 in 10.0 mi North 11.5 mph - N/A   Mostly Cloudy
6:35 PM 35.6 °F - 17.6 °F 48% 30.26 in 10.0 mi Calm Calm - N/A   Overcast
6:55 PM 33.8 °F 28.6 °F 19.4 °F 56% 30.27 in 10.0 mi WSW 5.8 mph - N/A   Overcast
7:15 PM 33.8 °F - 15.8 °F 48% 30.28 in 10.0 mi Calm Calm - N/A   Overcast
7:35 PM 32.0 °F 27.5 °F 17.6 °F 55% 30.28 in 10.0 mi SSW 4.6 mph - N/A   Mostly Cloudy
7:55 PM 30.2 °F 24.3 °F 21.2 °F 69% 30.28 in 10.0 mi SW 5.8 mph - N/A   Scattered Clouds
8:15 PM 30.2 °F 26.7 °F 21.2 °F 69% 30.29 in 10.0 mi WSW 3.5 mph - N/A   Scattered Clouds
8:35 PM 30.2 °F - 21.2 °F 69% 30.29 in 10.0 mi Calm Calm - N/A   Mostly Cloudy
8:55 PM 30.2 °F 26.7 °F 21.2 °F 69% 30.30 in 10.0 mi SSW 3.5 mph - N/A   Overcast
9:15 PM 30.2 °F - 21.2 °F 69% 30.30 in 10.0 mi Calm Calm - N/A   Scattered Clouds
9:35 PM 30.2 °F 26.7 °F 21.2 °F 69% 30.31 in 10.0 mi SSW 3.5 mph - N/A   Scattered Clouds
9:55 PM 30.2 °F 26.7 °F 21.2 °F 69% 30.31 in 10.0 mi SW 3.5 mph - N/A   Mostly Cloudy
10:15 PM 30.2 °F - 21.2 °F 69% 30.32 in 10.0 mi Calm Calm - N/A   Scattered Clouds
10:35 PM 28.4 °F 23.3 °F 19.4 °F 69% 30.32 in 10.0 mi NNW 4.6 mph - N/A   Mostly Cloudy
10:55 PM 28.4 °F 23.3 °F 15.8 °F 59% 30.32 in 10.0 mi NNW 4.6 mph - N/A   Scattered Clouds
11:15 PM 28.4 °F 20.4 °F 15.8 °F 59% 30.32 in 10.0 mi North 8.1 mph - N/A   Scattered Clouds
11:35 PM 28.4 °F 20.4 °F 14.0 °F 55% 30.32 in 10.0 mi North 8.1 mph - N/A   Mostly Cloudy
11:55 PM 26.6 °F 20.0 °F 14.0 °F 59% 30.33 in 10.0 mi NW 5.8 mph - N/A   Mostly Cloudy